|
Gurwin Techsat 1B - Orbit
|
Lake Runnemede Observatory;
08:21:11
| Home | Info | Passes |
|
View from above orbital plane
|
View from above satellite
|
Ground track
|
The orbit data is extracted from the following two-line orbital elements,
1 25397U 98043D 13141.96358209 .00000044 00000-0 37786-4 0 761
2 25397 098.4123 110.8656 0001799 058.8385 333.4977 14.23340445772210
| Epoch (UTC): | 21 May 2013 23:07:33 |
| Eccentricity: | 0.0001799 |
| inclination: | 98.4123° |
| perigee height: | 813 km |
| apogee height: | 815 km |
| right ascension of ascending node: | 110.8656° |
| argument of perigee: | 58.8385° |
| revolutions per day: | 14.23340445 |
| mean anomaly at epoch: | 333.4977° |
| orbit number at epoch: | 77221 |
The dashed part of the orbit path shows where the satellite is in the earth's shadow,
|
|